Regional Weather Roundup
Issued by NWS

Home | Current Version | Previous Version | Graphics & Text | Print | Product List | Glossary On
Versions: 1 2 3 4 5 6 7 8 9 10 11 12 13 14 15 16 17 18 19 20 21 22 23 24 25 26 27 28 29 30 31 32 33 34 35 36 37 38 39 40 41 42 43 44 45 46 47 48 49 50
000
ASUS43 KMKX 271759
RWRWI

WISCONSIN REGIONAL WEATHER ROUNDUP
NATIONAL WEATHER SERVICE MILWAUKEE/SULLIVAN WI
1200 PM CST TUE JAN 27 2015

NOTE: "FAIR" INDICATES FEW OR NO CLOUDS BELOW 12,000 FEET WITH NO
SIGNIFICANT WEATHER AND/OR OBSTRUCTIONS TO VISIBILITY.

WIZ001-002-006>008-014>016-023>028-271900-
NORTHWEST WISCONSIN

CITY           SKY/WX    TMP DP  RH WIND       PRES   REMARKS
SUPERIOR ARPT  CLOUDY    30  24  76 CALM      30.19R
ASHLAND        CLOUDY    29  22  75 W3        30.18S
6HR MIN TEMP:  26; 6HR MAX TEMP:  29;

HAYWARD        CLOUDY    27  20  75 CALM      30.17R
6HR MIN TEMP:  25; 6HR MAX TEMP:  27;

SIREN          CLOUDY    29  23  78 CALM      30.19R
CUMBERLAND     CLOUDY    28  21  74 CALM      30.16S
RICE LAKE      CLOUDY    28  23  79 SE5       30.18F WCI  23
CHETEK         CLOUDY    28  22  76 SE3       30.18S
LADYSMITH      CLOUDY    28  22  81 SE3       30.18S
EAU CLAIRE     CLOUDY    29  19  66 CALM      30.19R
6HR MIN TEMP:  26; 6HR MAX TEMP:  29;

MENOMONIE      CLOUDY    30  24  78 SE5       30.19S WCI  25
NEW RICHMOND   CLOUDY    30  24  77 SE5       30.18S WCI  25
OSCEOLA        CLOUDY    31  24  74 SE3       30.21S
$$

WIZ003>005-009-010-017-018-271900-
NORTH CENTRAL WISCONSIN

CITY           SKY/WX    TMP DP  RH WIND       PRES   REMARKS
MANITOWISH WTR CLOUDY    22  20  91 S5        30.13F WCI  16
ARBOR VITAE    CLOUDY    23  21  91 S3        30.14S
WOODRUFF       CLOUDY    23  21  91 S3        30.14S
RHINELANDER    CLOUDY    23  19  85 S5        30.15S WCI  17
6HR MIN TEMP:  20; 6HR MAX TEMP:  23;

EAGLE RIVER    CLOUDY    22  17  81 S3        30.14S
LAND O LAKES   CLOUDY    23  18  81 S6        30.15R WCI  16
PHILLIPS       CLOUDY    23  20  89 S3        30.14S
TOMAHAWK       CLOUDY    24  20  86 CALM      30.16S
MEDFORD        CLOUDY    23  21  91 S5        30.16R FOG     WCI  17
MERRILL        CLOUDY    24  21  90 SE3       30.17S
$$

WIZ029-030-035-036-043>047-271900-
CENTRAL WISCONSIN

CITY           SKY/WX    TMP DP  RH WIND       PRES   REMARKS
WAUSAU         CLOUDY    23  20  88 S5        30.17R WCI  17
6HR MIN TEMP:  22; 6HR MAX TEMP:  23;

MOSINEE        CLOUDY    23  21  93 SE3       30.18S
MARSHFIELD     CLOUDY    25  21  85 E3        30.17S FOG
6HR MIN TEMP:  23; 6HR MAX TEMP:  25;

STEVENS POINT  CLOUDY    22  19  90 E6        30.19R FOG     WCI  14
WAUPACA        LGT SNOW  28  21  74 CALM      30.21S
WAUTOMA        CLOUDY    27  21  80 E6        30.21R WCI  20
WISC RAPIDS    CLOUDY    24  20  84 SE5       30.21R WCI  18
6HR MIN TEMP:  23; 6HR MAX TEMP:  24;

CAMP DOUGLAS   CLOUDY    27  27 100 CALM      30.19R
$$

WIZ011>013-019>022-031-037>040-048>050-271900-
NORTHEAST WISCONSIN

CITY           SKY/WX    TMP DP  RH WIND       PRES   REMARKS
ANTIGO         LGT SNOW  22  19  89 SE5       30.16S WCI  15
SHAWANO        CLOUDY    27  19  70 CALM      30.22R
OCONTO         CLOUDY    26  18  72 E3        30.22S
STURGEON BAY   CLOUDY    23  19  86 N8        30.23S WCI  14
6HR MIN TEMP:  19; 6HR MAX TEMP:  25;

GREEN BAY      CLOUDY    26  17  68 NE7       30.22S WCI  18
6HR MIN TEMP:  23; 6HR MAX TEMP:  26;

MANITOWOC      NOT AVBL
APPLETON       PTSUNNY   27  16  63 E6        30.21R WCI  20
CLINTONVILLE   CLOUDY    27  18  69 E6        30.21S WCI  20
OSHKOSH        CLOUDY    27  17  66 CALM      30.20S
6HR MIN TEMP:  24; 6HR MAX TEMP:  27;

$$

WIZ032>034-041-042-053>061-271900-
SOUTHWEST WISCONSIN

CITY           SKY/WX    TMP DP  RH WIND       PRES   REMARKS
LA CROSSE      CLOUDY    31  20  63 N3        30.21R
6HR MIN TEMP:  30; 6HR MAX TEMP:  31;

SPARTA         CLOUDY    28  23  81 CALM      30.21R
VIROQUA        CLOUDY    27  22  82 N6        30.17S WCI  20
BOSCOBEL       CLOUDY    29  21  72 NE5       30.21S WCI  24
6HR MIN TEMP:  29; 6HR MAX TEMP:  30;

PRAIRIE DU CHI CLOUDY    30  20  66 N3        30.21S
PLATTEVILLE    CLOUDY    27  23  83 N6        30.18S WCI  21
$$

WIZ056-057-062-063-064-067-068-271900-
SOUTH CENTRAL WISCONSIN

CITY           SKY/WX    TMP DP  RH WIND       PRES   REMARKS
REEDSBURG      CLOUDY    26  22  87 CALM      30.19R
BARABOO/DELLS  CLOUDY    26  24  92 E3        30.18R FOG
LONE ROCK      NOT AVBL
MINERAL POINT  CLOUDY    28  23  80 NE3       30.17R
MADISON        CLOUDY    27  24  89 E7        30.18R FOG     WCI  19
6HR MIN TEMP:  24; 6HR MAX TEMP:  27;

MIDDLETON      CLOUDY    28  28  96 E5        30.18R WCI  23
WATERTOWN      CLOUDY    28  21  76 NE6       30.18R WCI  21
MONROE         CLOUDY    27  27 100 NE5       30.16R FOG     WCI  21
JANESVILLE     CLOUDY    30  25  80 E8        30.17S WCI  23
$$

WIZ051-052-058>065-066-070>072-271900-
SOUTHEAST WISCONSIN

CITY           SKY/WX    TMP DP  RH WIND       PRES   REMARKS
MILWAUKEE      MOSUNNY   29  15  56 E7        30.19R WCI  22
6HR MIN TEMP:  27; 6HR MAX TEMP:  29;

WAUKESHA       PTSUNNY   27  16  63 NE7       30.18S WCI  19
MILWAUKEE/TIMM SUNNY     30  12  47 NE8       30.20R WCI  23
RACINE         MOSUNNY   30  16  56 N9        30.20R WCI  22
6HR MIN TEMP:  27; 6HR MAX TEMP:  30;

BURLINGTON     CLOUDY    28  18  67 E5        30.17S WCI  22
KENOSHA        MOSUNNY   30  18  60 E7        30.18R WCI  23
6HR MIN TEMP:  27; 6HR MAX TEMP:  31;

FOND DU LAC    CLOUDY    28  17  63 CALM      30.20R
6HR MIN TEMP:  25; 6HR MAX TEMP:  28;

SHEBOYGAN      CLOUDY    27  17  66 NE3       30.20S
6HR MIN TEMP:  24; 6HR MAX TEMP:  28;

WEST BEND      FAIR      28  14  54 NE8       30.18S WCI  20
JUNEAU         CLOUDY    26  18  71 E6        30.19S WCI  20
$$

LSZ147-162-271900-
LAKE SUPERIOR

STATION/POSITION TIME  TEMP    WIND        PRES    WAVE
                       AIR SEA DIR/SP/G            HT/PER
                 (UTC) (F)     (DEG/KT/KT) (MB)    (FT/S)
DEVILS ISLAND    1700   29     220/  7/  8 1022.7R
PORT WING        1740   29     290/  4/  5 1022.4R
SAXON HARBOR     1700   28        CALM     1022.0R
$$

LMZ867-665-643>646-271900-
LAKE MICHIGAN

STATION/POSITION TIME  TEMP    WIND        PRES    WAVE
                       AIR SEA DIR/SP/G            HT/PER
                 (UTC) (F)     (DEG/KT/KT) (MB)    (FT/S)
NORTHPORT PIER   1727   26      60/  6/ 10 1023.7R
SISTER BAY       1613   24      10/ 10/ 11   N/A
KEWAUNEE LAKESHO 1700   26      70/  3/  7 1022.0R
SHEBOYGAN LAKESH 1700   26      50/  7/  8 1023.8R
PORT WASHINGTON  1700   29      60/  7/ 10 1023.4
MILWAUKEE LAKESH 1700   28      60/  9/ 12   N/A
KENOSHA   LAKESH 1700   28      40/  9/ 12 1022.0R
$$

TC  - TEMPERATURE IN CELSIUS
VSB - VISIBILITY IN STATUTE MILES
WCI - WIND CHILL INDEX
HX  - HEAT INDEX




USA.gov is the U.S. government's official web portal to all federal, state and local government web resources and services.